Wind_Speed
41 41 40 39 38 37 36 35 34 33 33 32 31 31 30 30 30 31 32 32 33 33 34 35 35 36 38 39 41 42 44 45 45 46 47 48 48 48 46 41 39 38 37 36 36 37 38 39 39 37 36 38 40 40 40 40 41 40 38 37 38 37 35
39 39 38 37 36 35 34 33 33 33 33 32 32 32 32 32 32 32 32 33 33 34 35 36 36 37 38 40 41 43 45 46 46 46 47 49 49 48 46 42 40 40 39 37 37 37 38 39 40 38 35 37 40 42 42 41 42 41 40 39 39 39 37
36 35 35 34 34 34 33 34 34 34 34 33 32 32 32 33 32 32 33 33 34 35 35 36 36 37 38 40 41 43 44 45 46 47 47 48 48 47 46 44 41 40 39 38 38 38 38 39 41 39 36 36 41 44 44 44 44 42 41 41 40 40 40
32 32 32 33 33 34 34 35 36 35 34 33 32 31 32 33 33 34 34 35 35 36 36 36 37 37 38 39 41 42 43 44 45 46 46 45 45 45 46 45 43 41 39 39 40 38 37 38 42 41 38 38 42 46 46 46 45 42 41 42 41 40 40
29 31 32 33 33 34 35 35 35 34 34 33 32 32 33 34 35 35 36 36 37 37 37 37 37 37 38 38 40 41 42 43 43 43 43 43 43 44 45 46 45 44 41 41 40 37 36 37 42 43 42 39 40 45 47 46 46 43 41 42 41 40 40
30 31 32 33 33 34 34 34 34 34 35 34 34 35 35 36 37 37 38 38 39 39 38 38 37 37 37 38 39 39 40 41 41 41 41 41 42 43 44 45 46 45 43 43 39 35 35 37 41 43 42 39 39 45 48 47 46 43 41 42 42 41 41
30 31 32 33 33 33 34 33 34 35 36 37 37 37 38 39 39 40 40 40 40 39 39 38 37 36 37 37 38 38 39 39 39 40 40 40 42 43 44 45 46 46 45 43 39 35 35 37 40 41 40 38 40 45 48 47 45 42 41 42 42 42 42
32 32 32 33 34 34 34 34 35 36 37 37 38 39 40 40 41 41 42 41 41 40 39 38 37 36 36 36 36 37 37 37 38 38 39 40 42 44 45 45 46 46 43 39 34 32 35 38 39 39 38 38 40 44 47 46 44 43 41 41 41 42 43
36 34 34 34 34 35 34 35 36 37 37 37 38 39 39 40 41 42 42 42 41 40 39 38 37 37 36 36 36 36 36 36 36 37 39 40 41 43 45 45 44 41 35 31 29 30 35 36 36 37 38 38 39 42 44 45 45 44 42 40 41 42 41
38 36 35 35 35 35 35 35 36 36 36 36 37 37 38 39 41 42 42 42 41 40 39 38 38 37 37 36 36 36 36 36 36 36 38 38 39 42 43 41 37 31 25 24 26 30 33 33 34 37 39 38 37 37 39 42 43 43 41 40 41 41 40
36 35 35 35 35 35 35 35 35 35 35 36 36 37 38 39 41 42 42 42 41 40 38 37 37 37 36 36 36 36 36 36 35 35 36 36 37 38 37 33 28 21 19 21 26 30 30 30 34 37 38 37 34 33 34 37 38 39 40 40 40 40 39
35 34 34 35 35 35 34 34 35 35 35 36 36 37 39 40 41 41 42 41 40 38 37 36 36 36 36 35 35 35 35 34 33 33 33 34 34 32 27 22 16 13 15 22 27 28 26 28 32 35 34 33 32 31 33 34 34 35 37 38 38 39 39
35 35 35 35 35 35 35 35 35 35 36 36 37 38 39 40 41 42 42 41 39 38 36 35 35 35 35 35 35 35 34 32 31 31 31 31 31 25 17 11 7 9 15 22 26 26 27 30 32 30 28 28 28 29 31 32 33 35 37 37 37 37 36
36 37 37 36 36 36 36 36 36 36 37 37 38 38 39 40 41 42 43 42 40 39 38 37 35 35 34 34 34 34 33 31 30 29 29 29 27 19 11 8 8 11 16 21 25 28 30 30 28 26 24 24 24 24 27 30 31 34 35 35 34 34 33
39 39 38 38 37 37 37 37 37 37 38 38 39 39 40 40 42 43 44 43 41 40 40 39 38 36 35 34 34 34 33 31 29 28 28 27 24 17 13 13 13 17 19 22 24 29 31 29 25 25 25 24 23 23 26 29 30 33 34 34 33 32 33
42 42 41 40 39 38 38 38 38 39 39 40 40 40 41 42 42 44 44 43 42 42 41 41 40 39 37 36 34 33 32 30 28 27 27 25 22 18 17 17 17 19 20 23 25 28 31 30 28 28 27 25 25 25 27 29 31 34 37 36 34 33 34
45 44 43 42 41 40 39 39 40 40 40 41 42 42 43 43 43 44 44 43 43 43 43 43 42 41 39 37 35 34 32 30 28 27 26 24 21 20 21 21 20 20 19 21 25 30 33 34 31 30 30 29 28 29 31 32 34 37 39 38 36 36 36
46 45 44 43 43 42 41 41 42 42 42 43 44 44 44 44 44 45 45 45 45 45 44 43 43 41 39 38 36 34 32 30 28 27 27 25 22 21 23 24 24 23 20 20 24 30 34 37 36 34 33 33 33 35 37 39 39 41 42 41 40 40 38
47 46 45 45 45 44 44 44 44 44 45 45 45 46 46 45 46 46 45 46 46 46 45 43 42 41 39 37 36 35 33 31 28 27 27 26 23 22 25 27 26 25 24 24 26 30 34 37 39 38 36 36 38 40 42 44 45 45 46 45 44 43 42
48 47 47 47 47 46 46 46 47 47 47 47 47 47 47 47 47 47 47 47 47 47 45 44 42 40 38 37 36 35 34 32 29 27 27 28 26 23 25 28 28 27 27 27 29 33 35 36 37 38 38 38 39 41 43 45 47 48 49 49 47 46 44
50 49 49 48 48 48 48 48 48 49 49 49 49 49 49 49 49 49 48 48 48 48 46 45 43 40 38 36 35 34 34 33 30 28 28 29 28 25 25 29 31 31 30 31 32 35 37 38 38 39 41 41 41 41 43 45 47 50 51 50 49 47 46
52 51 51 50 50 49 49 49 50 50 50 51 51 51 51 50 50 50 50 50 49 48 47 45 43 41 39 38 36 34 33 33 31 30 29 29 30 28 27 29 32 34 33 34 36 38 39 40 42 43 44 45 45 45 45 47 48 50 50 49 48 47 45
54 53 52 52 51 50 50 50 51 52 52 52 53 52 52 52 52 51 51 51 50 48 47 46 44 43 41 39 37 34 33 32 32 31 30 30 31 31 29 29 32 35 36 36 38 40 41 41 43 45 46 47 47 47 48 49 50 50 49 48 48 48 48
55 54 53 53 52 51 51 51 52 53 53 53 53 53 52 52 53 53 52 52 51 49 47 46 45 43 42 40 38 35 33 32 32 32 31 31 32 33 32 31 33 36 38 38 39 41 43 43 43 45 46 48 49 49 49 50 51 51 51 50 50 51 51
56 56 55 54 53 52 52 52 53 53 54 54 54 53 53 53 54 53 53 52 51 49 47 45 44 43 41 40 38 35 33 32 33 33 32 32 33 34 34 34 34 36 40 41 41 42 44 45 46 46 47 48 49 50 50 51 51 52 53 52 52 53 54
57 57 57 56 55 54 53 53 53 54 55 55 55 54 54 55 55 54 54 54 52 50 48 46 44 43 41 40 38 36 34 33 33 33 33 33 34 35 36 36 35 36 39 43 45 45 45 46 47 48 49 49 50 51 52 53 53 54 54 54 54 55 56
58 58 58 57 56 55 55 54 54 55 55 55 56 56 56 56 56 55 55 54 53 51 48 46 45 44 42 40 39 36 35 34 34 34 34 35 35 36 38 38 37 37 38 42 46 48 48 48 48 50 50 51 51 52 54 55 56 55 55 55 55 56 58
60 59 59 58 58 57 56 56 56 56 56 56 56 57 57 56 56 56 56 55 53 51 49 47 46 45 43 41 39 38 36 34 34 35 36 36 36 37 39 39 39 39 39 41 44 48 50 50 50 51 51 52 52 53 54 55 56 56 55 55 55 56 57
63 61 60 59 59 58 58 58 58 58 58 58 58 57 57 57 57 57 56 55 54 51 49 48 48 46 45 42 41 39 38 36 36 36 37 38 38 38 40 41 41 41 41 42 43 46 49 51 51 52 52 54 55 55 56 56 57 57 56 55 55 55 56
64 62 61 61 60 60 60 60 60 60 60 60 59 59 59 58 58 57 56 55 54 52 50 49 49 48 46 44 42 41 40 40 39 39 38 39 40 40 41 42 43 43 43 43 43 45 47 50 52 53 53 54 56 58 59 60 60 60 60 59 59 58 58
63 63 63 63 63 62 62 61 61 61 61 61 60 60 60 59 58 57 56 55 54 52 50 50 49 49 47 45 43 42 42 42 42 42 41 40 41 42 42 43 44 45 45 45 45 45 46 48 51 54 55 56 57 58 60 61 62 63 63 63 63 63 63
65 65 66 65 64 64 63 63 63 62 62 61 61 61 60 59 58 57 56 55 53 52 51 50 50 49 47 45 44 43 44 44 45 44 43 42 42 42 43 44 45 46 47 47 47 47 47 48 49 52 55 57 58 60 61 61 62 63 64 64 64 65 66
66 67 66 66 65 65 64 64 63 63 62 61 61 60 59 59 58 57 56 55 53 52 51 51 50 49 48 46 46 47 47 48 48 47 45 44 43 43 44 45 46 47 48 49 49 49 49 49 50 51 53 56 58 61 62 63 63 63 64 65 66 66 67
66 66 66 65 65 64 63 63 62 61 60 60 60 59 59 58 57 57 55 54 53 52 52 52 51 50 49 49 50 51 52 51 50 49 47 45 43 43 44 45 46 48 49 50 51 51 51 51 51 51 52 54 57 60 62 64 65 65 65 66 67 67 68
66 65 65 64 63 62 62 61 59 59 59 59 59 59 58 58 57 56 55 54 53 53 53 53 52 52 52 53 53 54 54 54 52 50 47 45 44 43 43 45 46 48 49 50 51 52 52 52 52 53 53 53 55 57 60 63 65 66 67 68 68 68 68
64 63 62 62 61 60 59 58 58 58 58 58 58 58 58 57 56 55 55 54 54 54 54 54 54 54 55 55 56 56 55 54 52 49 46 45 43 43 43 44 46 47 48 50 51 51 52 53 53 54 54 55 55 56 58 61 64 66 68 69 70 71 70
62 61 60 59 58 57 57 57 58 58 58 58 57 57 57 57 56 55 55 55 55 56 56 56 56 57 57 57 57 57 56 53 50 48 45 44 43 43 43 44 45 47 48 49 50 51 52 53 53 54 55 56 56 57 58 60 62 65 67 69 71 73 73
Wind_Direction
281 283 285 287 289 290 291 291 292 295 296 295 294 292 291 292 293 295 296 296 295 294 293 291 289 286 283 280 277 276 276 277 278 279 281 284 286 288 290 288 286 286 286 284 279 273 265 255 247 245 245 241 237 236 236 236 238 238 235 233 235 237 239
283 284 286 288 289 290 290 291 292 294 295 295 294 292 292 293 294 295 295 295 295 294 292 291 290 287 284 281 278 277 276 277 277 278 280 283 286 287 288 287 287 288 288 284 279 276 268 253 241 239 241 239 236 235 236 236 237 237 235 234 233 235 239
285 285 287 288 288 289 290 290 291 292 293 293 293 293 293 293 294 294 294 294 294 293 292 291 290 288 285 282 279 277 276 276 277 277 279 281 284 286 285 286 287 287 286 283 280 279 271 251 235 233 235 235 232 231 234 236 237 236 235 234 233 234 237
286 287 287 287 288 289 289 290 291 292 292 292 292 292 292 293 293 294 294 295 294 293 292 291 290 288 285 282 280 278 277 277 277 278 279 281 283 283 285 287 288 286 284 282 281 280 270 246 230 227 229 231 230 228 229 233 237 236 234 234 235 234 236
285 285 285 286 287 288 288 289 291 292 292 292 293 293 293 294 295 296 297 297 296 295 293 292 290 287 285 283 281 280 279 278 278 279 280 282 282 283 286 288 288 287 285 282 280 278 266 241 225 224 227 230 231 228 227 229 234 236 234 233 235 236 237
283 283 284 284 285 286 288 289 291 293 294 295 296 297 297 297 298 298 299 298 298 297 295 294 291 288 285 283 282 281 280 279 279 280 282 283 285 287 288 289 289 288 285 280 274 268 255 234 222 223 226 229 229 226 225 226 231 235 233 232 234 237 238
283 283 283 284 285 287 288 290 292 294 296 298 300 300 300 300 301 301 301 301 299 298 296 295 292 289 286 284 283 282 281 281 282 283 285 287 289 291 292 292 291 288 284 278 268 255 240 225 219 223 226 227 227 225 223 223 227 233 232 231 233 236 239
285 284 284 285 286 287 288 290 292 294 297 299 301 302 303 304 305 306 306 306 305 303 301 298 295 291 288 286 285 284 284 284 286 288 290 291 293 295 296 295 292 289 282 272 260 244 226 216 218 223 224 225 224 224 223 221 224 231 233 233 233 236 240
284 285 285 286 286 287 288 289 292 294 297 299 302 304 305 307 308 309 309 309 309 307 304 300 297 294 290 288 287 287 287 288 289 291 292 294 297 299 299 299 295 289 277 261 246 230 216 212 217 220 221 222 222 222 223 221 223 230 235 235 234 236 241
281 283 284 285 285 286 287 289 291 293 295 298 302 303 305 306 308 309 309 308 307 306 304 300 296 293 292 290 289 289 289 290 291 291 293 296 300 302 303 302 297 285 265 244 227 215 211 212 214 215 218 222 222 222 223 223 226 232 234 234 235 237 241
279 281 283 284 285 286 287 289 291 293 295 298 300 302 304 306 308 310 309 309 307 304 302 298 294 292 291 291 290 290 289 290 291 291 294 298 302 305 306 304 297 276 246 221 209 205 209 213 212 213 219 222 223 223 224 227 230 233 235 234 234 236 239
281 282 283 284 285 287 288 289 290 291 294 297 299 301 304 306 309 311 310 309 307 304 301 298 294 291 290 290 290 290 290 290 291 292 294 299 304 307 306 303 292 259 220 202 199 201 204 209 212 216 220 223 225 226 227 230 234 235 235 234 234 237 239
283 283 284 285 286 287 288 288 288 290 292 296 298 301 304 307 309 311 310 308 305 303 301 299 296 293 290 290 290 291 291 291 291 291 294 298 303 304 297 290 274 227 200 192 194 197 200 207 215 218 221 224 226 228 229 233 236 238 237 236 235 237 241
285 285 284 285 285 286 286 287 287 289 292 294 297 301 304 306 309 310 310 307 304 302 301 300 299 297 294 291 291 291 291 290 289 289 291 296 301 294 267 242 223 208 202 199 199 200 203 209 214 216 221 224 222 227 236 239 239 240 239 238 238 239 244
286 285 285 284 284 284 285 286 286 288 291 293 295 300 303 306 309 310 309 307 303 300 299 298 298 299 297 294 292 291 291 290 287 285 287 292 295 279 243 226 219 213 214 215 212 210 208 207 210 213 219 224 218 220 235 241 244 248 246 241 240 242 245
284 284 283 283 282 283 284 285 285 287 290 292 294 298 302 305 308 309 308 306 303 299 297 295 294 295 295 294 292 290 290 289 285 281 281 286 287 267 237 227 225 221 223 223 220 217 210 204 207 214 219 222 217 212 221 229 236 246 250 248 245 244 247
282 282 282 281 281 282 283 284 284 286 289 291 292 295 300 304 306 308 307 306 304 301 299 295 292 291 291 291 291 289 288 287 283 278 276 279 279 261 237 228 227 225 227 227 221 216 210 204 206 213 216 218 214 211 215 220 224 234 245 250 249 246 248
280 281 281 280 280 281 282 283 284 285 288 291 292 294 298 302 305 306 306 306 306 303 301 299 295 291 288 288 288 287 285 285 282 277 273 273 273 259 238 230 231 228 226 228 225 220 216 211 208 212 215 216 214 214 215 219 224 231 239 245 245 243 242
279 279 279 279 280 281 282 283 283 284 287 290 291 292 296 300 303 304 305 306 306 304 302 302 301 296 289 286 286 284 282 282 280 274 270 269 269 260 241 230 231 233 230 226 223 223 222 219 215 216 219 219 218 217 216 219 225 230 236 239 241 242 242
276 277 278 279 280 281 282 283 284 284 286 288 289 291 293 297 301 303 303 305 305 304 302 302 304 301 293 287 285 283 280 279 277 272 266 265 265 262 246 233 229 233 235 231 224 221 221 222 221 222 226 228 227 226 225 227 230 233 236 239 242 245 246
275 276 277 278 279 281 282 283 284 284 286 287 288 290 291 295 299 301 302 304 305 304 301 301 302 303 299 292 287 282 278 276 275 270 264 261 261 261 251 238 230 230 233 234 231 225 221 220 222 225 229 233 235 236 237 237 238 239 240 242 245 248 249
273 274 275 276 278 279 281 282 283 284 286 286 288 289 290 293 297 299 301 303 304 303 301 300 300 299 298 296 291 284 278 275 273 269 263 258 258 258 254 243 234 231 230 231 232 232 227 222 221 223 226 229 233 236 239 241 242 243 243 244 245 247 249
272 273 274 275 277 278 280 281 282 284 286 287 288 288 289 291 296 298 300 302 304 302 301 300 300 298 295 294 292 286 279 274 272 268 262 257 254 255 255 247 238 232 231 231 231 233 233 231 228 227 227 228 230 233 236 239 242 243 244 245 245 245 248
271 272 273 274 276 277 279 281 282 284 285 286 287 287 288 291 295 298 299 301 303 302 300 299 299 298 294 292 291 287 281 275 271 267 262 256 252 252 253 251 243 235 232 233 234 235 235 236 235 234 233 234 234 235 235 236 239 241 243 244 244 246 249
270 270 271 273 274 277 279 281 282 284 284 285 286 286 288 291 295 297 299 301 301 300 298 297 297 298 295 291 289 287 282 277 272 268 263 257 252 249 249 251 248 241 234 232 235 238 238 238 238 239 239 239 240 241 240 238 238 240 241 243 244 246 249
269 269 270 272 274 276 279 281 282 283 284 285 285 286 289 292 295 296 298 300 301 299 297 295 295 296 294 291 289 286 282 279 275 270 266 260 253 249 247 248 249 247 240 235 233 236 239 240 240 240 241 242 243 245 245 244 243 242 242 243 244 246 248
268 269 270 272 274 276 278 280 281 282 283 284 285 287 290 292 294 296 298 299 299 298 295 293 293 294 292 290 288 285 282 281 279 274 269 263 256 250 247 247 247 248 246 241 237 236 237 239 240 240 240 241 242 243 245 246 247 247 247 247 247 247 249
269 270 271 273 274 276 278 279 280 281 282 284 286 288 290 292 293 295 297 298 298 296 294 292 293 293 291 288 287 284 281 281 282 278 273 267 260 254 249 247 246 246 247 246 243 240 239 240 241 242 241 240 240 240 241 243 246 247 248 249 250 250 251
269 270 272 273 274 276 277 278 279 280 281 283 285 287 289 291 293 294 296 297 296 294 292 292 293 294 292 288 286 283 280 280 282 282 277 271 265 258 252 249 247 246 246 247 247 245 242 242 243 244 244 243 243 242 242 243 244 245 246 247 248 248 249
268 269 271 273 275 276 277 277 279 280 281 282 284 287 288 290 292 293 294 295 294 292 291 291 293 294 293 289 286 284 281 280 282 283 280 275 269 263 257 252 249 247 246 245 246 246 246 244 244 244 244 245 245 245 245 246 246 247 247 247 247 247 248
268 269 271 273 274 276 276 278 279 280 281 282 284 286 288 289 290 292 293 293 293 291 291 291 293 294 292 289 287 285 284 283 283 283 281 277 271 267 261 256 252 249 248 246 245 245 246 246 245 244 244 244 245 246 246 247 248 249 249 250 249 249 249
267 269 271 272 274 275 276 277 279 280 281 283 284 286 287 288 290 291 292 292 291 290 290 292 293 293 291 289 287 287 287 287 286 284 282 278 273 268 264 260 255 252 250 248 247 246 246 246 246 245 245 244 245 245 246 247 247 248 249 250 250 250 250
267 268 270 272 273 275 276 277 279 280 282 283 284 285 286 288 289 290 291 291 290 289 290 291 293 293 291 289 288 289 290 290 289 286 283 280 274 269 264 261 258 255 252 251 250 249 248 248 247 246 246 245 244 245 245 246 246 247 248 249 249 249 250
267 268 270 272 273 274 276 277 278 280 281 283 284 285 286 288 289 290 291 290 289 290 291 292 292 292 291 289 290 291 291 292 291 288 284 281 276 270 265 261 258 256 254 253 252 251 251 250 249 248 248 246 245 244 245 245 246 246 247 248 249 250 250
267 269 270 271 272 274 275 277 278 280 282 283 284 286 287 289 290 291 290 290 290 290 291 292 292 291 290 290 291 291 292 292 291 288 285 281 277 271 265 261 258 256 255 254 253 253 252 252 251 250 250 249 248 246 245 245 245 246 247 247 248 249 250
267 268 270 271 273 274 275 276 279 281 283 285 286 287 289 290 291 290 290 290 290 291 292 292 291 291 291 291 291 292 292 291 289 286 283 279 275 271 267 262 259 257 256 255 254 254 253 253 252 252 252 251 251 249 248 246 246 246 247 248 248 249 249
267 269 271 272 274 275 276 278 281 283 285 286 288 289 290 290 290 290 290 290 291 291 292 291 291 291 291 291 291 291 290 289 286 283 280 277 273 270 267 264 261 259 257 257 256 256 255 255 255 254 253 253 253 252 251 250 249 248 248 248 248 249 249
Height
10704 10703 10703 10702 10702 10701 10701 10700 10699 10699 10698 10698 10698 10697 10696 10695 10694 10694 10693 10692 10691 10690 10689 10688 10687 10687 10686 10686 10686 10685 10685 10684 10684 10683 10681 10680 10680 10679 10678 10679 10680 10679 10679 10678 10677 10676 10676 10677 10679 10682 10684 10687 10690 10692 10693 10696 10697 10698 10701 10702 10703 10705 10706
10700 10699 10698 10698 10697 10697 10696 10696 10695 10695 10695 10694 10694 10693 10692 10691 10691 10690 10689 10688 10688 10687 10685 10684 10683 10683 10682 10681 10680 10680 10679 10679 10678 10678 10677 10675 10674 10673 10672 10672 10673 10673 10672 10671 10670 10669 10669 10670 10672 10675 10678 10681 10685 10686 10688 10690 10691 10693 10696 10698 10699 10701 10702
10696 10695 10694 10694 10693 10692 10692 10692 10692 10691 10691 10691 10690 10690 10688 10687 10687 10686 10685 10685 10684 10682 10682 10681 10680 10679 10677 10676 10675 10675 10674 10673 10672 10672 10672 10670 10669 10668 10666 10666 10666 10666 10665 10664 10663 10663 10662 10663 10665 10669 10672 10675 10679 10681 10683 10684 10686 10689 10691 10693 10695 10697 10698
10693 10692 10691 10690 10689 10688 10688 10687 10687 10688 10688 10688 10687 10687 10685 10684 10683 10682 10682 10681 10680 10678 10677 10676 10675 10674 10673 10671 10670 10669 10668 10667 10667 10666 10666 10665 10664 10662 10660 10659 10659 10659 10658 10657 10656 10656 10656 10656 10658 10662 10666 10669 10672 10675 10677 10679 10681 10684 10687 10689 10691 10693 10694
10690 10689 10687 10686 10685 10685 10684 10684 10683 10683 10683 10683 10684 10683 10682 10681 10680 10679 10678 10677 10676 10674 10673 10672 10671 10669 10668 10666 10665 10664 10663 10662 10661 10660 10660 10659 10658 10656 10654 10652 10651 10651 10651 10650 10650 10650 10649 10649 10652 10656 10660 10663 10666 10669 10672 10674 10676 10679 10682 10685 10687 10689 10691
10686 10685 10684 10683 10682 10681 10680 10680 10679 10678 10678 10678 10678 10678 10678 10677 10676 10675 10674 10673 10672 10670 10669 10667 10666 10664 10663 10661 10659 10658 10657 10656 10655 10655 10654 10653 10652 10650 10648 10646 10643 10642 10642 10642 10643 10644 10643 10644 10647 10650 10654 10658 10661 10664 10666 10670 10672 10675 10678 10680 10682 10685 10686
10683 10682 10680 10679 10679 10678 10677 10676 10675 10674 10673 10672 10672 10672 10672 10671 10671 10670 10669 10668 10667 10665 10664 10662 10661 10659 10657 10656 10654 10653 10652 10651 10650 10649 10648 10647 10645 10643 10641 10639 10636 10634 10633 10632 10634 10635 10636 10638 10642 10645 10649 10653 10656 10659 10662 10665 10668 10670 10673 10675 10678 10680 10681
10679 10678 10677 10676 10675 10674 10674 10673 10671 10670 10669 10668 10667 10667 10666 10665 10665 10664 10663 10662 10661 10659 10658 10657 10656 10654 10652 10651 10649 10648 10647 10646 10645 10643 10642 10641 10639 10636 10634 10631 10628 10625 10623 10623 10624 10627 10629 10633 10637 10640 10645 10648 10652 10654 10658 10662 10664 10666 10668 10670 10674 10676 10677
10675 10674 10674 10673 10672 10671 10671 10670 10668 10667 10665 10664 10663 10662 10662 10661 10660 10659 10658 10657 10655 10654 10652 10651 10650 10648 10647 10646 10644 10643 10642 10641 10640 10638 10636 10635 10633 10630 10627 10623 10619 10616 10614 10615 10617 10621 10625 10629 10633 10637 10641 10644 10647 10650 10654 10658 10661 10662 10664 10666 10669 10671 10673
10671 10671 10670 10669 10669 10668 10667 10666 10665 10664 10662 10661 10660 10659 10658 10658 10656 10655 10654 10652 10651 10649 10648 10646 10645 10643 10642 10641 10639 10638 10637 10635 10635 10633 10632 10630 10628 10625 10621 10616 10612 10609 10608 10609 10613 10617 10622 10627 10630 10634 10637 10641 10644 10648 10651 10654 10657 10658 10659 10662 10665 10667 10669
10668 10667 10666 10666 10665 10665 10664 10663 10662 10661 10660 10658 10657 10656 10656 10655 10654 10652 10650 10649 10647 10645 10644 10642 10640 10639 10638 10636 10635 10633 10632 10631 10630 10629 10628 10626 10624 10621 10617 10612 10607 10605 10604 10607 10611 10616 10621 10625 10628 10631 10635 10639 10642 10646 10648 10651 10653 10654 10656 10659 10661 10663 10665
10663 10663 10662 10662 10661 10661 10661 10660 10659 10658 10657 10656 10655 10654 10653 10652 10651 10649 10647 10645 10644 10642 10640 10638 10636 10635 10633 10632 10631 10629 10628 10627 10626 10625 10624 10623 10621 10618 10614 10610 10607 10604 10604 10606 10611 10616 10620 10623 10625 10629 10633 10637 10640 10643 10645 10647 10649 10650 10652 10654 10657 10659 10661
10658 10658 10658 10658 10657 10657 10657 10657 10656 10655 10654 10653 10652 10651 10650 10649 10647 10646 10644 10642 10640 10638 10636 10634 10632 10631 10630 10628 10627 10625 10624 10624 10623 10622 10621 10619 10618 10616 10614 10611 10609 10607 10607 10609 10612 10616 10619 10621 10624 10628 10632 10635 10638 10640 10642 10644 10645 10646 10648 10650 10653 10654 10656
10654 10654 10654 10654 10653 10653 10653 10653 10653 10652 10651 10650 10649 10648 10647 10646 10644 10642 10640 10639 10637 10635 10633 10631 10629 10627 10626 10625 10623 10621 10620 10620 10619 10618 10618 10617 10615 10614 10613 10611 10610 10610 10611 10612 10614 10616 10618 10620 10623 10627 10630 10632 10635 10637 10639 10641 10642 10642 10644 10647 10648 10650 10652
10650 10650 10650 10650 10650 10649 10649 10649 10649 10648 10647 10647 10646 10645 10644 10643 10641 10639 10637 10635 10633 10631 10629 10627 10625 10624 10622 10621 10619 10618 10617 10616 10616 10615 10615 10614 10612 10612 10611 10611 10610 10611 10612 10613 10614 10615 10617 10619 10622 10625 10627 10629 10632 10635 10637 10638 10639 10639 10641 10642 10644 10646 10647
10646 10646 10646 10646 10646 10645 10645 10645 10645 10644 10644 10643 10642 10641 10640 10639 10638 10636 10634 10632 10629 10627 10625 10623 10621 10620 10618 10617 10615 10614 10613 10612 10612 10612 10611 10611 10610 10609 10609 10609 10609 10610 10611 10612 10613 10614 10615 10618 10620 10623 10625 10627 10630 10632 10634 10636 10637 10637 10637 10638 10640 10642 10643
10641 10641 10641 10641 10641 10641 10641 10641 10640 10640 10640 10639 10639 10638 10637 10635 10634 10632 10630 10628 10626 10624 10621 10619 10617 10615 10614 10612 10611 10610 10609 10609 10608 10608 10608 10607 10607 10606 10606 10607 10607 10607 10608 10609 10610 10611 10613 10615 10617 10620 10622 10624 10626 10629 10631 10632 10633 10634 10634 10635 10636 10637 10639
10637 10637 10637 10637 10636 10636 10636 10636 10636 10636 10636 10635 10635 10634 10633 10631 10630 10628 10626 10624 10622 10620 10617 10615 10612 10611 10609 10608 10606 10606 10605 10604 10604 10604 10604 10604 10603 10603 10603 10604 10604 10604 10606 10607 10608 10609 10610 10612 10614 10616 10618 10620 10622 10624 10626 10628 10629 10629 10630 10631 10631 10632 10634
10632 10632 10632 10632 10632 10632 10632 10632 10632 10632 10632 10631 10630 10629 10628 10627 10625 10624 10622 10620 10618 10615 10613 10611 10608 10606 10604 10603 10602 10601 10600 10600 10600 10600 10600 10599 10599 10599 10599 10600 10601 10602 10603 10604 10605 10607 10608 10609 10610 10612 10614 10615 10617 10619 10621 10622 10623 10624 10625 10625 10626 10628 10630
10627 10627 10627 10627 10627 10627 10627 10627 10628 10627 10627 10627 10626 10625 10624 10622 10621 10619 10618 10616 10613 10611 10608 10606 10604 10602 10600 10599 10597 10596 10595 10595 10595 10596 10596 10595 10595 10595 10595 10596 10597 10598 10599 10600 10602 10603 10604 10606 10607 10609 10610 10611 10612 10614 10616 10617 10618 10619 10620 10620 10622 10623 10625
10623 10622 10622 10622 10622 10623 10623 10623 10623 10622 10622 10622 10622 10620 10619 10617 10616 10615 10613 10611 10609 10606 10604 10602 10600 10597 10595 10594 10593 10591 10591 10590 10590 10591 10591 10591 10591 10591 10591 10592 10593 10594 10595 10596 10597 10598 10600 10601 10603 10605 10606 10607 10608 10610 10612 10613 10613 10614 10615 10616 10617 10618 10619
10618 10617 10617 10617 10618 10618 10618 10618 10618 10617 10617 10617 10616 10615 10614 10612 10611 10610 10608 10606 10604 10601 10599 10597 10595 10593 10591 10589 10588 10587 10586 10585 10585 10586 10586 10586 10586 10586 10587 10587 10588 10589 10591 10592 10593 10593 10595 10596 10598 10599 10601 10602 10604 10605 10606 10607 10608 10608 10610 10611 10612 10613 10614
10612 10612 10612 10612 10613 10614 10614 10613 10613 10612 10612 10611 10611 10610 10609 10607 10606 10604 10603 10601 10599 10596 10594 10592 10590 10588 10586 10584 10583 10582 10581 10581 10580 10581 10581 10581 10582 10582 10582 10582 10583 10584 10585 10587 10588 10589 10590 10591 10593 10594 10596 10597 10598 10599 10600 10601 10602 10603 10604 10605 10606 10607 10608
10607 10607 10607 10607 10609 10609 10609 10608 10607 10607 10606 10606 10605 10604 10603 10602 10600 10599 10597 10596 10593 10591 10589 10587 10585 10583 10581 10579 10578 10577 10577 10576 10575 10575 10576 10576 10576 10577 10577 10577 10578 10579 10580 10582 10583 10584 10585 10586 10587 10589 10590 10591 10592 10593 10594 10595 10596 10597 10598 10599 10600 10601 10602
10602 10602 10602 10603 10604 10604 10604 10603 10602 10601 10601 10600 10599 10598 10597 10596 10594 10593 10591 10590 10588 10586 10584 10582 10580 10578 10576 10574 10573 10572 10571 10571 10570 10570 10570 10571 10571 10571 10571 10572 10572 10573 10575 10576 10577 10578 10580 10581 10582 10583 10584 10585 10586 10587 10588 10589 10590 10591 10591 10593 10594 10594 10594
10597 10596 10597 10597 10598 10599 10598 10598 10597 10596 10595 10594 10593 10592 10591 10590 10589 10587 10585 10583 10582 10580 10579 10577 10574 10572 10571 10569 10568 10567 10566 10565 10565 10564 10565 10565 10566 10566 10566 10566 10567 10567 10569 10570 10571 10573 10574 10575 10576 10577 10578 10579 10580 10581 10582 10583 10583 10584 10585 10586 10587 10588 10588
10591 10591 10591 10592 10593 10593 10592 10592 10591 10591 10590 10589 10588 10586 10585 10584 10582 10580 10579 10577 10575 10574 10572 10571 10569 10567 10565 10564 10563 10562 10561 10560 10559 10559 10559 10559 10560 10560 10560 10561 10561 10562 10563 10564 10565 10566 10567 10569 10570 10571 10572 10573 10574 10575 10575 10575 10576 10578 10579 10580 10581 10582 10581
10586 10586 10586 10586 10586 10586 10586 10586 10586 10585 10584 10583 10582 10581 10579 10578 10576 10574 10572 10570 10569 10567 10566 10564 10562 10561 10560 10559 10558 10557 10556 10555 10554 10553 10553 10553 10553 10554 10554 10555 10555 10556 10556 10557 10558 10559 10561 10562 10563 10564 10566 10567 10568 10569 10569 10569 10570 10571 10572 10574 10575 10575 10574
10580 10580 10580 10580 10580 10580 10580 10580 10579 10579 10579 10578 10576 10575 10573 10572 10570 10568 10566 10564 10562 10561 10559 10557 10556 10554 10553 10552 10551 10550 10550 10549 10548 10548 10547 10546 10547 10547 10548 10548 10549 10550 10550 10551 10551 10552 10553 10555 10556 10557 10559 10560 10561 10562 10563 10563 10563 10564 10565 10566 10567 10567 10567
10574 10574 10574 10574 10574 10574 10574 10574 10573 10573 10572 10571 10570 10569 10567 10566 10564 10562 10559 10557 10555 10554 10552 10551 10549 10548 10546 10545 10544 10544 10543 10543 10542 10542 10541 10540 10540 10540 10541 10541 10542 10543 10544 10544 10545 10545 10546 10547 10548 10550 10551 10552 10553 10554 10555 10555 10556 10556 10557 10558 10559 10559 10560
10569 10568 10568 10568 10568 10568 10568 10567 10567 10566 10566 10565 10564 10562 10560 10559 10557 10555 10553 10551 10549 10547 10546 10544 10543 10541 10539 10538 10537 10537 10536 10536 10535 10534 10534 10533 10533 10533 10533 10534 10535 10535 10536 10537 10537 10538 10539 10540 10541 10542 10543 10545 10546 10546 10546 10547 10547 10548 10548 10549 10550 10551 10551
10562 10562 10562 10562 10562 10562 10562 10561 10561 10560 10559 10558 10556 10555 10553 10551 10550 10548 10546 10544 10542 10541 10539 10538 10536 10534 10532 10531 10531 10530 10529 10528 10527 10527 10526 10525 10525 10525 10525 10525 10526 10527 10528 10529 10530 10531 10531 10532 10533 10534 10535 10536 10538 10538 10539 10539 10539 10539 10539 10540 10541 10542 10542
10556 10556 10556 10556 10556 10556 10555 10555 10554 10553 10552 10550 10548 10547 10545 10544 10542 10540 10539 10537 10535 10534 10532 10531 10529 10527 10526 10524 10524 10523 10522 10521 10520 10519 10518 10517 10517 10517 10517 10517 10518 10519 10520 10521 10522 10523 10524 10524 10525 10526 10527 10528 10529 10530 10530 10531 10531 10531 10531 10531 10532 10533 10533
10549 10550 10550 10550 10550 10550 10549 10548 10547 10546 10544 10542 10540 10539 10537 10536 10535 10533 10531 10530 10528 10526 10525 10524 10522 10520 10519 10518 10516 10515 10514 10513 10512 10511 10510 10509 10508 10508 10508 10509 10509 10510 10511 10512 10513 10514 10515 10516 10517 10517 10518 10519 10520 10521 10521 10522 10523 10523 10523 10523 10523 10524 10525
10543 10543 10544 10544 10544 10543 10542 10541 10540 10538 10536 10535 10533 10531 10530 10528 10527 10525 10524 10522 10520 10519 10517 10516 10515 10513 10512 10510 10509 10508 10506 10505 10503 10502 10502 10501 10500 10500 10500 10500 10501 10501 10502 10503 10504 10505 10506 10507 10508 10509 10509 10510 10511 10512 10512 10513 10514 10514 10514 10514 10514 10514 10515
10536 10537 10537 10537 10537 10536 10535 10534 10532 10531 10529 10527 10525 10524 10522 10520 10519 10517 10516 10514 10513 10511 10510 10508 10507 10506 10504 10503 10501 10500 10498 10497 10495 10494 10494 10493 10493 10492 10492 10492 10492 10493 10494 10495 10496 10497 10497 10498 10499 10500 10500 10501 10502 10502 10503 10504 10504 10504 10504 10504 10504 10505 10505
10530 10530 10531 10530 10529 10528 10527 10526 10525 10523 10521 10519 10518 10516 10514 10513 10511 10510 10508 10507 10505 10503 10502 10500 10499 10498 10496 10495 10493 10492 10490 10489 10487 10486 10486 10485 10485 10485 10485 10485 10485 10485 10486 10487 10487 10488 10489 10489 10490 10490 10491 10492 10492 10493 10493 10494 10494 10495 10495 10495 10494 10494 10495